Location: Głubczyce
(50.2020°N, 17.8242°E)
Time: 23:59:04
(UTC+01:00)

ISS - Visible Passes

Search period start: 23 January 2019 00:00
Search period end: 02 February 2019 00:00
Orbit: 404 x 410 km, 51.6° (Epoch: 24 January)

Date Brightness Start Highest point End Pass type
(mag) Time Alt. Az. Time Alt. Az. Time Alt. Az.
23 Jan -1.8 18:39:32 10° SSW 18:41:05 20° S 18:41:05 20° S visible
24 Jan -1.9 17:48:56 10° S 17:51:12 17° SE 17:52:04 16° ESE visible
24 Jan -0.9 19:24:01 10° WSW 19:24:47 16° WSW 19:24:47 16° WSW visible
25 Jan -3.2 18:32:48 10° SW 18:35:41 46° S 18:35:41 46° S visible
26 Jan -2.7 17:41:44 10° SSW 17:44:42 32° SSE 17:46:30 19° E visible
26 Jan -1.4 19:17:46 10° W 19:19:14 24° W 19:19:14 24° W visible
27 Jan -4.0 18:26:22 10° WSW 18:29:41 79° SSE 18:30:00 69° E visible
28 Jan -3.5 17:35:03 10° SW 17:38:18 57° SSE 17:40:43 16° E visible
28 Jan -1.9 19:11:33 10° W 19:13:26 31° W 19:13:26 31° W visible
29 Jan -3.8 18:20:05 10° W 18:23:23 75° N 18:24:07 50° ENE visible
29 Jan -0.2 19:56:46 10° WNW 19:56:50 10° WNW 19:56:50 10° WNW visible
30 Jan -3.8 17:28:37 10° WSW 17:31:56 89° SSE 17:34:47 13° ENE visible
30 Jan -2.4 19:05:18 10° W 19:07:30 37° WNW 19:07:30 37° WNW visible
31 Jan -3.7 18:13:48 10° W 18:17:06 66° N 18:18:09 38° ENE visible
31 Jan -0.5 19:50:25 10° WNW 19:50:52 13° WNW 19:50:52 13° WNW visible
01 Feb -3.7 17:22:17 10° W 17:25:36 71° N 17:28:49 11° ENE visible
01 Feb -3.0 18:58:57 10° WNW 19:01:32 50° WNW 19:01:32 50° WNW visible
